When you browse on this site, cookies collect data to enhance your experience and personalize the content and advertising you see.
Visit our Privacy Policy to learn more. By continuing to use the site, you agree to this use of cookies and data.
  • In Hungary
  • List of Countries
  • For 7 days
  • Water Temperature
  • Weather Map
  • News
  • Weather Widgets
  • user-avatar
    Login

    Hourly Weather Nenorovo

    Today, 19 January, Sunday

    Time Temperature Precipitation Wind Pressure Humidity
    00:00 -1°C° 0 mm 3 mps 746 mmHg 81%
    01:00 -2°C° 0 mm 3 mps 747 mmHg 83%
    02:00 -2°C° 0 mm 3 mps 747 mmHg 89%
    03:00 -2°C° 0 mm 3 mps 747 mmHg 89%
    04:00 -2°C° 0 mm 3 mps 747 mmHg 90%
    05:00 -2°C° 0 mm 3 mps 747 mmHg 90%
    06:00 -1°C° 0 mm 3 mps 748 mmHg 89%
    07:00 -1°C° 0 mm 3 mps 748 mmHg 88%
    08:00 -1°C° 0 mm 3 mps 749 mmHg 87%
    09:00 0°C° 0 mm 3 mps 749 mmHg 85%
    10:00 -1°C° 0 mm 4 mps 749 mmHg 82%
    11:00 0°C° 0 mm 4 mps 749 mmHg 80%
    12:00 -1°C° 0 mm 4 mps 749 mmHg 80%
    13:00 -1°C° 0 mm 4 mps 749 mmHg 79%
    14:00 -1°C° 0 mm 4 mps 749 mmHg 80%
    15:00 -1°C° 0 mm 4 mps 749 mmHg 81%
    16:00 -1°C° 0 mm 4 mps 749 mmHg 83%
    17:00 -1°C° 0 mm 4 mps 749 mmHg 85%
    18:00 -1°C° 0 mm 4 mps 749 mmHg 86%
    19:00 -1°C° 0 mm 4 mps 749 mmHg 88%
    20:00 -1°C° 0 mm 4 mps 749 mmHg 89%
    21:00 -1°C° 0 mm 4 mps 749 mmHg 90%
    22:00 0°C° 0 mm 4 mps 749 mmHg 90%
    23:00 0°C° 0 mm 4 mps 749 mmHg 91%

    Tomorrow, 20 January, Monday

    Time Temperature Precipitation Wind Pressure Humidity
    00:00 0°C° 0 mm 5 mps 749 mmHg 89%
    01:00 0°C° 0 mm 5 mps 749 mmHg 87%
    02:00 0°C° 0 mm 5 mps 750 mmHg 85%
    03:00 0°C° 0 mm 5 mps 749 mmHg 87%
    04:00 0°C° 0 mm 4 mps 749 mmHg 88%
    05:00 0°C° 0 mm 4 mps 749 mmHg 89%
    06:00 -1°C° 0 mm 4 mps 749 mmHg 91%
    07:00 -1°C° 0 mm 4 mps 749 mmHg 93%
    08:00 -1°C° 0 mm 4 mps 750 mmHg 95%
    09:00 -1°C° 0 mm 4 mps 749 mmHg 94%
    10:00 -1°C° 0 mm 5 mps 749 mmHg 93%
    11:00 -1°C° 0 mm 5 mps 749 mmHg 92%
    12:00 -1°C° 0 mm 5 mps 749 mmHg 92%
    13:00 -1°C° 0 mm 5 mps 750 mmHg 93%
    14:00 -1°C° 0 mm 5 mps 750 mmHg 93%
    15:00 -1°C° 0 mm 5 mps 749 mmHg 92%
    16:00 -1°C° 0 mm 5 mps 749 mmHg 91%
    17:00 -1°C° 0 mm 5 mps 748 mmHg 89%
    18:00 -1°C° 0 mm 5 mps 748 mmHg 86%
    19:00 -1°C° 0 mm 5 mps 747 mmHg 83%
    20:00 -1°C° 0 mm 5 mps 747 mmHg 79%
    21:00 -1°C° 0 mm 5 mps 746 mmHg 78%
    22:00 -1°C° 0 mm 5 mps 746 mmHg 77%
    23:00 -1°C° 0 mm 5 mps 745 mmHg 75%

    Day after tomorrow, 21 January, Tuesday

    Time Temperature Precipitation Wind Pressure Humidity
    00:00 -1°C° 0 mm 5 mps 745 mmHg 77%
    01:00 -1°C° 0 mm 5 mps 744 mmHg 78%
    02:00 -1°C° 0 mm 5 mps 743 mmHg 80%
    03:00 -2°C° 0.1 mm 6 mps 742 mmHg 82%
    04:00 -2°C° 0.1 mm 6 mps 741 mmHg 84%
    05:00 -1°C° 0.1 mm 6 mps 740 mmHg 86%
    06:00 -1°C° 0.2 mm 6 mps 740 mmHg 86%
    07:00 +1°C° 0.2 mm 6 mps 739 mmHg 86%
    08:00 +1°C° 0.2 mm 6 mps 739 mmHg 87%
    09:00 +2°C° 0 mm 6 mps 738 mmHg 87%
    10:00 +2°C° 0 mm 6 mps 738 mmHg 87%
    11:00 +3°C° 0 mm 6 mps 737 mmHg 87%
    12:00 +3°C° 0 mm 6 mps 737 mmHg 86%
    13:00 +3°C° 0 mm 6 mps 736 mmHg 85%
    14:00 +3°C° 0 mm 6 mps 736 mmHg 85%
    15:00 +3°C° 0.4 mm 5 mps 735 mmHg 87%
    16:00 +3°C° 0.4 mm 5 mps 734 mmHg 90%
    17:00 +4°C° 0.4 mm 4 mps 733 mmHg 93%
    18:00 +2°C° 0.8 mm 5 mps 733 mmHg 92%
    19:00 +2°C° 0.8 mm 5 mps 733 mmHg 91%
    20:00 +2°C° 0.8 mm 5 mps 733 mmHg 91%
    21:00 +1°C° 0.3 mm 6 mps 733 mmHg 86%
    22:00 +1°C° 0.3 mm 6 mps 733 mmHg 80%
    23:00 -1°C° 0.3 mm 6 mps 733 mmHg 75%

    22 January, Wednesday

    Time Temperature Precipitation Wind Pressure Humidity
    00:00 -2°C° 0 mm 6 mps 734 mmHg 74%
    01:00 -2°C° 0 mm 6 mps 734 mmHg 73%
    02:00 -3°C° 0 mm 6 mps 734 mmHg 71%
    03:00 -3°C° 0 mm 6 mps 734 mmHg 73%
    04:00 -3°C° 0 mm 6 mps 733 mmHg 75%
    05:00 -4°C° 0 mm 5 mps 733 mmHg 78%
    06:00 -4°C° 0 mm 5 mps 732 mmHg 78%
    07:00 -4°C° 0 mm 5 mps 732 mmHg 78%
    08:00 -4°C° 0 mm 5 mps 731 mmHg 78%
    09:00 -3°C° 0.2 mm 6 mps 731 mmHg 76%
    10:00 -3°C° 0.2 mm 6 mps 731 mmHg 75%
    11:00 -3°C° 0.2 mm 6 mps 731 mmHg 73%
    12:00 -2°C° 0.2 mm 5 mps 731 mmHg 72%
    13:00 -2°C° 0.2 mm 5 mps 730 mmHg 70%
    14:00 -2°C° 0.2 mm 5 mps 730 mmHg 69%
    15:00 -4°C° 0 mm 5 mps 731 mmHg 71%
    16:00 -4°C° 0 mm 5 mps 731 mmHg 74%
    17:00 -5°C° 0 mm 5 mps 731 mmHg 76%
    18:00 -5°C° 0 mm 5 mps 731 mmHg 76%
    19:00 -5°C° 0 mm 5 mps 732 mmHg 76%
    20:00 -5°C° 0 mm 5 mps 732 mmHg 76%
    21:00 -5°C° 0 mm 5 mps 733 mmHg 76%
    22:00 -5°C° 0 mm 5 mps 733 mmHg 77%
    23:00 -5°C° 0 mm 5 mps 733 mmHg 77%

    23 January, Thursday

    Time Temperature Precipitation Wind Pressure Humidity
    00:00 -6°C° 0 mm 6 mps 734 mmHg 72%
    01:00 -6°C° 0 mm 6 mps 735 mmHg 67%
    02:00 -8°C° 0 mm 6 mps 735 mmHg 62%
    03:00 -8°C° 0 mm 6 mps 736 mmHg 63%
    04:00 -9°C° 0 mm 6 mps 736 mmHg 63%
    05:00 -9°C° 0 mm 6 mps 737 mmHg 64%
    06:00 -9°C° 0 mm 6 mps 737 mmHg 63%
    07:00 -9°C° 0 mm 6 mps 737 mmHg 62%
    08:00 -8°C° 0 mm 6 mps 738 mmHg 62%
    09:00 -8°C° 0.1 mm 6 mps 738 mmHg 64%
    10:00 -8°C° 0.1 mm 6 mps 739 mmHg 66%
    11:00 -8°C° 0.1 mm 7 mps 739 mmHg 68%
    12:00 -8°C° 0 mm 6 mps 739 mmHg 63%
    13:00 -8°C° 0 mm 6 mps 740 mmHg 58%
    14:00 -8°C° 0 mm 6 mps 740 mmHg 53%
    15:00 -7°C° 0 mm 5 mps 741 mmHg 54%
    16:00 -7°C° 0 mm 5 mps 741 mmHg 56%
    17:00 -8°C° 0 mm 4 mps 741 mmHg 58%
    18:00 -7°C° 0 mm 3 mps 742 mmHg 58%
    19:00 -8°C° 0 mm 3 mps 742 mmHg 58%
    20:00 -8°C° 0 mm 3 mps 742 mmHg 59%
    21:00 -7°C° 0 mm 2 mps 742 mmHg 60%
    22:00 -7°C° 0 mm 2 mps 742 mmHg 61%
    23:00 -7°C° 0 mm 2 mps 742 mmHg 63%

    24 January, Friday

    Time Temperature Precipitation Wind Pressure Humidity
    00:00 -7°C° 0 mm 3 mps 741 mmHg 69%
    01:00 -7°C° 0 mm 3 mps 740 mmHg 75%
    02:00 -7°C° 0 mm 4 mps 739 mmHg 81%
    03:00 -7°C° 0.4 mm 4 mps 738 mmHg 85%
    04:00 -5°C° 0.4 mm 4 mps 736 mmHg 89%
    05:00 -6°C° 0.4 mm 5 mps 735 mmHg 93%
    06:00 -5°C° 0.4 mm 5 mps 734 mmHg 92%
    07:00 -5°C° 0.4 mm 5 mps 733 mmHg 92%
    08:00 -4°C° 0.4 mm 5 mps 732 mmHg 92%
    09:00 -2°C° 0 mm 5 mps 732 mmHg 90%
    10:00 0°C° 0 mm 5 mps 732 mmHg 88%
    11:00 +1°C° 0 mm 6 mps 731 mmHg 86%
    12:00 +1°C° 0 mm 6 mps 732 mmHg 81%
    13:00 -1°C° 0 mm 6 mps 732 mmHg 76%
    14:00 -1°C° 0 mm 6 mps 732 mmHg 70%
    15:00 -2°C° 0 mm 6 mps 733 mmHg 71%
    16:00 -3°C° 0 mm 6 mps 733 mmHg 71%
    17:00 -2°C° 0 mm 5 mps 734 mmHg 71%
    18:00 -4°C° 0 mm 5 mps 734 mmHg 71%
    19:00 -4°C° 0 mm 5 mps 735 mmHg 71%
    20:00 -4°C° 0 mm 5 mps 735 mmHg 71%
    21:00 -4°C° 0 mm 5 mps 735 mmHg 73%
    22:00 -5°C° 0 mm 5 mps 736 mmHg 76%
    23:00 -4°C° 0 mm 4 mps 736 mmHg 78%
    Show more